TimeEDT,TemperatureF,Dew PointF,Humidity,Sea Level PressureIn,VisibilityMPH,Wind Direction,Wind SpeedMPH,Gust SpeedMPH,PrecipitationIn,Events,Conditions,WindDirDegrees,DateUTC
12:53 AM,70.0,64.9,84,30.06,10.0,SW,4.6,-,N/A,,Clear,230,2014-08-26 04:53:00
1:53 AM,69.1,64.9,87,30.06,10.0,Calm,Calm,-,N/A,,Clear,0,2014-08-26 05:53:00
2:53 AM,66.9,64.9,93,30.06,10.0,ENE,3.5,-,N/A,,Clear,70,2014-08-26 06:53:00
3:53 AM,66.0,64.9,96,30.05,8.0,ENE,4.6,-,N/A,,Mostly Cloudy,70,2014-08-26 07:53:00
4:53 AM,66.9,64.9,93,30.06,10.0,NNE,3.5,-,N/A,,Scattered Clouds,30,2014-08-26 08:53:00
5:53 AM,64.9,64.0,97,30.07,9.0,Calm,Calm,-,N/A,,Scattered Clouds,0,2014-08-26 09:53:00
6:53 AM,64.0,63.0,96,30.09,10.0,Calm,Calm,-,N/A,,Scattered Clouds,0,2014-08-26 10:53:00
7:53 AM,66.0,64.0,93,30.11,10.0,Calm,Calm,-,N/A,,Scattered Clouds,0,2014-08-26 11:53:00
8:53 AM,70.0,64.0,81,30.14,10.0,Calm,Calm,-,N/A,,Scattered Clouds,0,2014-08-26 12:53:00
9:53 AM,72.0,64.0,76,30.15,10.0,Calm,Calm,-,N/A,,Mostly Cloudy,0,2014-08-26 13:53:00
10:53 AM,75.2,62.6,65,30.18,10.0,North,3.5,-,N/A,,Mostly Cloudy,10,2014-08-26 14:53:00
11:53 AM,77.0,64.4,65,30.18,10.0,NNW,3.5,-,N/A,,Scattered Clouds,340,2014-08-26 15:53:00
12:53 PM,79.0,66.0,64,30.14,10.0,Variable,3.5,-,N/A,,Mostly Cloudy,0,2014-08-26 16:53:00
1:53 PM,80.1,66.0,62,30.12,10.0,Variable,3.5,-,N/A,,Scattered Clouds,0,2014-08-26 17:53:00
2:53 PM,82.9,66.0,56,30.09,10.0,Variable,3.5,-,N/A,,Scattered Clouds,0,2014-08-26 18:53:00
3:53 PM,82.9,64.9,54,30.06,10.0,East,3.5,-,N/A,,Scattered Clouds,90,2014-08-26 19:53:00
4:53 PM,84.2,66.2,55,30.07,10.0,East,6.9,-,N/A,,Scattered Clouds,80,2014-08-26 20:53:00
5:53 PM,84.0,64.9,53,30.04,10.0,East,6.9,-,N/A,,Scattered Clouds,80,2014-08-26 21:53:00
6:53 PM,82.0,64.9,56,30.04,10.0,ENE,8.1,-,N/A,,Partly Cloudy,70,2014-08-26 22:53:00
7:53 PM,79.0,64.9,62,30.04,10.0,ENE,4.6,-,N/A,,Scattered Clouds,70,2014-08-26 23:53:00
8:53 PM,77.0,64.9,66,30.05,10.0,NE,4.6,-,N/A,,Partly Cloudy,40,2014-08-27 00:53:00
9:53 PM,73.0,64.9,76,30.07,10.0,ENE,4.6,-,N/A,,Clear,70,2014-08-27 01:53:00
10:53 PM,73.0,64.9,76,30.07,10.0,Calm,Calm,-,N/A,,Clear,0,2014-08-27 02:53:00
11:53 PM,71.1,64.0,78,30.06,10.0,Calm,Calm,-,N/A,,Clear,0,2014-08-27 03:53:00